"Pseudo-MPEC" for P10PJG3

Created 2019 Jul 12 21:07:09 UT using Find_Orb

Click here for an explanation of pseudo-MPECs

 
 Astrometry: 
     P10PJG3  C2019 07 07x$tlsYgAstrometry\rGpTVs%v6T1iY]xMFredacted;`A#7-!o[F51
     P10PJG3  C2019 07 07Hh;5$g6tvmG!iclick7/Sx3jQhere`6k(n\iIQKq@@`D-forws)DF51
     P10PJG3  C2019 07 07t^32GgeF0Q;Bwn$fUkiO1Pts'GVKA;8SbYexplanationsb3)9N)F51

Station data:
(F51) Pan-STARRS 1, Haleakala  (N20.707235 W156.255910)  US/Hawaii.
   Observers N. Primak, A. Schultz, S. Watters, J. Thiel, T. Goggia. Measurer
   PS1 Science Consortium. 1.8-m Ritchey-Chrétien + CCD.

Orbital elements:  P10PJG3
   Perihelion 2019 Sep 4.998987 +/- 32.1 TT = 23:58:32 (JD 2458731.498987)
Epoch 2019 Jul  8.0 TT = JDT 2458672.5   Earth MOID: 0.0208   AutoNEOCP
M 307.35624135 +/- 33               (J2000 ecliptic)
n   0.89228241 +/- 0.52             Peri.  237.59737 +/- 60
a   1.06856552 +/- 0.415            Node   105.66124 +/- 2.2
e   0.0464620 +/- 0.257             Incl.    3.68119 +/- 11
P   1.10/403.45d           H 27.9   G  0.15   U 12.3  SR
q 1.01891783 +/- 0.392    Q 1.11821321 +/- 26.7
From 3 observations 2019 July 7 (47.7 min); mean residual 0".30
Residuals in arcseconds: 
190707 F51  .04+  .19-    190707 F51  .13-  .58+    190707 F51  .09+  .39-    

Ephemerides (geocentric):
Date (UTC) HH   RA              Dec         delta   r     elong  mag " sig PA
---- -- -- --  -------------   -----------  ------ ------ -----  --- ---- ---
2019 07 12 21  22 18 57.018   -24 49 57.95  .02613 1.0369 140.5 21.7  60d 169
2019 07 12 22  22 19 22.175   -24 54 43.85  .02612 1.0368 140.4 21.7  60d 168
2019 07 12 23  22 19 47.380   -24 59 29.76  .02610 1.0368 140.4 21.7  60d 168
2019 07 13 00  22 20 12.631   -25 04 15.68  .02609 1.0368 140.3 21.7  60d 168
2019 07 13 01  22 20 37.929   -25 09 01.59  .02608 1.0368 140.3 21.7  60d 168
2019 07 13 02  22 21 03.274   -25 13 47.50  .02607 1.0367 140.2 21.7  60d 168
2019 07 13 03  22 21 28.666   -25 18 33.40  .02606 1.0367 140.2 21.7  60d 168
2019 07 13 04  22 21 54.105   -25 23 19.29  .02605 1.0367 140.1 21.7  60d 168
2019 07 13 05  22 22 19.591   -25 28 05.17  .02603 1.0367 140.1 21.7  60d 168
2019 07 13 06  22 22 45.124   -25 32 51.02  .02602 1.0366 140.0 21.7  60d 168
2019 07 13 07  22 23 10.704   -25 37 36.84  .02601 1.0366 139.9 21.7  60d 168
2019 07 13 08  22 23 36.330   -25 42 22.63  .02600 1.0366 139.9 21.7  60d 168
2019 07 13 09  22 24 02.003   -25 47 08.39  .02599 1.0366 139.8 21.7  60d 168
2019 07 13 10  22 24 27.723   -25 51 54.10  .02598 1.0365 139.8 21.7  60d 168
2019 07 13 11  22 24 53.489   -25 56 39.77  .02597 1.0365 139.7 21.7  60d 168
2019 07 13 12  22 25 19.302   -26 01 25.39  .02596 1.0365 139.7 21.7  60d 168
2019 07 13 13  22 25 45.161   -26 06 10.96  .02595 1.0365 139.6 21.7  60d 168
2019 07 13 14  22 26 11.067   -26 10 56.46  .02594 1.0364 139.6 21.7  60d 168
2019 07 13 15  22 26 37.019   -26 15 41.90  .02593 1.0364 139.5 21.7  60d 167
2019 07 13 16  22 27 03.018   -26 20 27.28  .02592 1.0364 139.5 21.7  60d 167
2019 07 13 17  22 27 29.063   -26 25 12.58  .02591 1.0364 139.4 21.7  60d 167
2019 07 13 18  22 27 55.154   -26 29 57.80  .02590 1.0363 139.3 21.7  60d 167
2019 07 13 19  22 28 21.292   -26 34 42.95  .02589 1.0363 139.3 21.7  60d 167
2019 07 13 20  22 28 47.475   -26 39 28.00  .02588 1.0363 139.2 21.7  60d 167
2019 07 13 21  22 29 13.705   -26 44 12.96  .02587 1.0363 139.2 21.7  60d 167
2019 07 13 22  22 29 39.981   -26 48 57.83  .02586 1.0362 139.1 21.7  60d 167
2019 07 13 23  22 30 06.302   -26 53 42.59  .02585 1.0362 139.1 21.7  60d 167
2019 07 14 00  22 30 32.670   -26 58 27.25  .02584 1.0362 139.0 21.7  60d 167
2019 07 14 01  22 30 59.083   -27 03 11.80  .02583 1.0362 138.9 21.7  60d 167
2019 07 14 02  22 31 25.543   -27 07 56.24  .02582 1.0361 138.9 21.7  60d 167
2019 07 14 03  22 31 52.048   -27 12 40.55  .02582 1.0361 138.8 21.7  60d 167
2019 07 14 04  22 32 18.598   -27 17 24.74  .02581 1.0361 138.8 21.7  60d 167
2019 07 14 05  22 32 45.194   -27 22 08.80  .02580 1.0361 138.7 21.7  60d 167
2019 07 14 06  22 33 11.836   -27 26 52.73  .02579 1.0360 138.6 21.7  60d 167
2019 07 14 07  22 33 38.523   -27 31 36.52  .02578 1.0360 138.6 21.7  60d 167
2019 07 14 08  22 34 05.255   -27 36 20.16  .02578 1.0360 138.5 21.7  60d 167
2019 07 14 09  22 34 32.032   -27 41 03.66  .02577 1.0359 138.5 21.7  60d 167
2019 07 14 10  22 34 58.855   -27 45 47.01  .02576 1.0359 138.4 21.7  60d 167
2019 07 14 11  22 35 25.723   -27 50 30.19  .02575 1.0359 138.3 21.7  60d 167
2019 07 14 12  22 35 52.635   -27 55 13.22  .02575 1.0359 138.3 21.7  60d 167
2019 07 14 13  22 36 19.593   -27 59 56.07  .02574 1.0358 138.2 21.7  60d 167
2019 07 14 14  22 36 46.595   -28 04 38.76  .02573 1.0358 138.2 21.7  60d 167
2019 07 14 15  22 37 13.643   -28 09 21.27  .02572 1.0358 138.1 21.7  60d 167
2019 07 14 16  22 37 40.734   -28 14 03.60  .02572 1.0358 138.0 21.7  60d 167
2019 07 14 17  22 38 07.871   -28 18 45.74  .02571 1.0357 138.0 21.7  60d 167
2019 07 14 18  22 38 35.052   -28 23 27.69  .02570 1.0357 137.9 21.7  60d 167
2019 07 14 19  22 39 02.277   -28 28 09.45  .02570 1.0357 137.8 21.7  60d 167
2019 07 14 20  22 39 29.546   -28 32 51.00  .02569 1.0357 137.8 21.7  60d 167